This is the latest recevied weather packets stored in our database for station/object SA6BET-2. If no packets are shown the sender has not sent any weather packets the latest 10 day(s).
| Time | Temp. | Humidity | Pressure | Rain* | Wind** | Luminosity | Snow |
|---|---|---|---|---|---|---|---|
| 1787435226 | 27.78° C | 100% | 1017.9 hPa | - | - | - | - |
| 1787434326 | 27.78° C | 100% | 1018 hPa | - | - | - | - |
| 1787433425 | 28.33° C | 100% | 1018.1 hPa | - | - | - | - |
| 1787432525 | 28.33° C | 100% | 1018.1 hPa | - | - | - | - |
| 1787431625 | 28.33° C | 100% | 1018 hPa | - | - | - | - |
| 1787430725 | 28.33° C | 100% | 1017.9 hPa | - | - | - | - |
| 1787429825 | 28.89° C | 100% | 1017.9 hPa | - | - | - | - |
| 1787428925 | 28.89° C | 100% | 1017.7 hPa | - | - | - | - |
| 1787428024 | 28.89° C | 100% | 1017.3 hPa | - | - | - | - |
| 1787427124 | 28.33° C | 100% | 1017.4 hPa | - | - | - | - |
| 1787426224 | 28.89° C | 100% | 1017.1 hPa | - | - | - | - |
| 1787425323 | 28.89° C | 100% | 1016.9 hPa | - | - | - | - |
| 1787424423 | 29.44° C | 100% | 1016.8 hPa | - | - | - | - |
| 1787423531 | 29.44° C | 100% | 1016.7 hPa | - | - | - | - |
| 1787422631 | 30° C | 100% | 1016.6 hPa | - | - | - | - |
| 1787421731 | 30.56° C | 100% | 1016.4 hPa | - | - | - | - |
| 1787420830 | 31.11° C | 100% | 1016.4 hPa | - | - | - | - |
| 1787419930 | 30.56° C | 100% | 1016.4 hPa | - | - | - | - |
| 1787419030 | 32.78° C | 100% | 1016.2 hPa | - | - | - | - |
| 1787418130 | 33.33° C | 100% | 1016.1 hPa | - | - | - | - |
| 1787417230 | 33.33° C | 100% | 1016.1 hPa | - | - | - | - |
| 1787416330 | 34.44° C | 100% | 1016 hPa | - | - | - | - |
| 1787415429 | 35° C | 100% | 1015.9 hPa | - | - | - | - |
| 1787414529 | 37.22° C | 98% | 1015.8 hPa | - | - | - | - |
| 1787413629 | 35° C | 100% | 1015.8 hPa | - | - | - | - |
* Rain since midnight (hover to see other rain measurements)
** Current wind speed in m/s (hover to see current wind gust speed)